sat.trackr.live / text

‹ back to catalog

STARLINK-4148

NORAD 53293 · 2022-086BD

PAYLOAD ACTIVE UNKNOWN

§ Identity

Operator
Country
US
Launch date
2022-07-24
Launch site
AFETR
Launch vehicle
Mass (kg)
RCS (m²)

Purposes: comms

External: N2YO · Heavens-Above · Gunter

§ Orbital elements

Epoch: 2026-05-25T03:02:30.254784Z

Period
95.44 min
Inclination
53.2151°
Eccentricity
0.0000426
Mean motion
15.08859778 rev/d
Perigee alt
539.4 km
Apogee alt
540.0 km
Semi-major
6,917.8 km
B*
2.0798e-4
RAAN
190.9707°
Arg perigee
179.9385°
Mean anomaly
180.1607°
Rev number
21,286

§ Raw data

STARLINK-41481 53293U 22086BD  26145.12673906  .00003026  00000+0  20798-3 0  99912 53293  53.2151 190.9707 0000426 179.9385 180.1607 15.08859778212868

JSON: /api/v1/satellites/53293 · /tle

For live sub-satellite position, see the globe view (requires WebGL).

§ Visibility from observer

Set your observer location to see the next 7 days of passes ≥ 10°. The values pass through the URL so the page stays shareable.

No JS? Fill the form by hand. The geolocation button needs JavaScript.